{"data":{"norad_id":58515,"epoch":"2026-05-24T18:19:52.587840Z","epoch_age_seconds":85608,"freshness":"FRESH","line1":"1 58515U 23191H   26144.76380310  .00000389  00000+0  23656-4 0  9990","line2":"2 58515  43.0025 161.5409 0001430 287.1350  72.9345 15.27576014139810","mean_motion":15.27576014,"eccentricity":0.000143,"inclination_deg":43.0025,"raan_deg":161.5409,"arg_perigee_deg":287.135,"mean_anomaly_deg":72.9345,"bstar":2.3656e-5,"rev_number":13981,"period_min":94.266994689797,"perigee_km":482.07988026505,"apogee_km":484.04218290208,"semimajor_km":6861.1980315836,"source":"CELESTRAK","updated_at":"2026-05-25T13:38:18.656655Z"}}